Regional Weather Roundup
Issued by NWS Bismarck, ND

Home | Current Version | Previous Version | Text Only | Print | Product List | Glossary On
Versions: 1 2 3 4 5 6 7 8 9 10 11 12 13 14 15 16 17 18 19 20 21 22 23 24 25 26 27 28 29 30 31 32 33 34 35 36 37 38 39 40 41 42 43 44 45 46 47 48 49 50
000
ASUS43 KBIS 281410
RWRBIS

NWR BROADCAST TEXT
NATIONAL WEATHER SERVICE BISMARCK ND
900 AM CDT WED SEP 28 2016

NOTE: "FAIR" INDICATES FEW OR NO CLOUDS BELOW 12,000 FEET WITH NO
SIGNIFICANT WEATHER AND/OR OBSTRUCTIONS TO VISIBILITY.


CITY           SKY/WX    TMP DP  RH WIND       PRES   REMARKS
WILLISTON      SUNNY     51  47  86 N9        30.23R
MINOT          SUNNY     46  41  82 SE3       30.23R
MINOT AFB      SUNNY     44  40  87 SE5       30.23R
BISMARCK       SUNNY     41  38  89 NE6       30.24R
DICKINSON      SUNNY     50  44  80 S3        30.20R
GARRISON         N/A     47  42  83 E3        30.23R
HETTINGER ARPT SUNNY     50  46  86 CALM      30.23R
JAMESTOWN      CLOUDY    48  44  86 N3        30.26R
BEACH          FAIR      48  48 100 N5        30.26R
CARRINGTON     CLOUDY    41  41 100 CALM      30.28R
HAZEN          FAIR      43  39  87 CALM      30.25R
LINTON         FAIR      41  41 100 E5        30.26R
MANDAN         FAIR      46  39  76 E3        30.24R
RUGBY          FAIR      41  41 100 E3        30.25R
STANLEY        FAIR      48  46  93 CALM      30.24R
WATFORD CITY   FAIR      48  48 100 NW3       30.22R
$$

CITY           SKY/WX    TMP DP  RH WIND       PRES   REMARKS
GRAND FORKS    MOSUNNY   47  43  86 N3        30.26R
GRAND FORKS AF SUNNY     46  45  98 N6        30.26R
DEVILS LAKE    CLOUDY    47  45  93 NE5       30.27R
FARGO          CLOUDY    49  45  86 NE5       30.25R
CANDO          FOG       39  39 100 CALM      30.29R VSB<1/4
CAVALIER       FAIR      45  45 100 N3        30.27R
GRAFTON        FAIR      46  46 100 N3        30.28R
GWINNER        FAIR      45  43  93 N7        30.25R
LANGDON        FAIR      45  45 100 CALM      30.27R
ROLLA          FAIR      45  45 100 CALM      30.26R
WALHALLA       FAIR      45  45 100 CALM      30.28R
$$

CITY           SKY/WX    TMP DP  RH WIND       PRES   REMARKS
ABERDEEN       SUNNY     45  41  86 N6        30.25R
MOBRIDGE       SUNNY     50  43  77 E3        30.21R
BUFFALO          N/A     58  46  64 N7        30.15R
RAPID CITY     SUNNY     60  44  55 W3        30.22R
GLASGOW        CLEAR     49  44  83 CALM      30.28R
SIDNEY         SUNNY     52  47  83 N14       30.24R
WOLF POINT     CLEAR     52  46  80 CALM      30.27R
GLENDIVE       SUNNY     51  48  89 NW8       30.25R
MILES CITY     CLEAR     52  47  83 NW6       30.25R
BAKER          SUNNY     52  46  80 CALM      30.24R
$$

CITY           SKY/WX    TMP DP  RH WIND       PRES   REMARKS
BILLINGS       CLEAR     52  45  77 E5        30.30R
GREAT FALLS    CLEAR     39  36  89 W7        30.32R
REGINA         PTCLDY    48  45  87 N15       30.27S
ESTEVAN        MOSUNNY   43  37  81 NE5       30.22R
$$





USA.gov is the U.S. government's official web portal to all federal, state and local government web resources and services.